SCP
0 0 0 0 0 0 0 0 0 0 0 0 0 0 0 0 0 0 0 0 0 0 0 0 0 0 0 0 0 0 0 0 0 0 0 0 0 0 0 0 1 1 1 1
0 0 0 0 0 0 0 0 0 0 0 0 0 0 0 0 0 0 0 0 0 0 0 0 0 0 0 0 0 0 0 0 0 0 0 0 0 1 1 1 1 1 1 1
0 0 0 0 0 0 0 0 0 0 0 0 0 0 0 0 0 0 0 0 0 0 0 0 0 0 0 0 0 0 0 0 0 0 0 0 0 1 1 1 1 1 1 1
0 0 0 0 0 0 0 0 0 0 0 0 0 0 0 0 0 0 0 0 0 0 0 0 0 0 0 0 0 0 0 0 0 0 0 0 0 1 1 1 1 1 1 1
0 0 0 0 0 0 0 0 0 0 0 0 0 0 0 0 0 0 0 0 0 0 0 0 0 0 0 0 0 0 0 0 0 0 0 0 0 0 1 1 1 1 1 1
0 0 0 0 0 0 0 0 0 0 0 0 0 0 0 0 0 0 0 0 0 0 0 0 0 0 0 0 0 0 0 0 0 0 0 0 0 0 0 1 1 1 1 1
0 0 0 0 0 0 0 0 0 0 0 0 0 0 0 0 0 0 0 0 0 0 0 0 0 0 0 0 0 0 0 0 0 0 0 0 0 0 0 0 0 0 0 0
0 0 0 0 0 0 0 0 0 0 0 0 0 0 0 0 0 0 0 0 0 0 0 0 0 0 0 0 0 0 0 0 0 0 0 0 0 0 0 0 0 0 0 0
0 0 0 0 0 0 0 0 0 0 0 0 0 0 0 0 0 0 0 0 0 0 0 0 0 0 0 0 0 0 0 0 0 0 0 0 0 0 0 0 0 0 0 0
0 0 0 0 0 0 0 0 0 0 0 0 0 0 0 0 0 0 0 0 0 0 0 0 0 0 0 0 0 0 0 0 0 0 0 0 0 0 0 0 0 0 0 0
0 0 0 0 0 0 0 0 0 0 0 0 0 0 0 0 0 0 0 0 0 0 0 0 0 0 0 0 0 0 0 0 0 0 0 0 0 0 0 0 0 0 0 0
0 0 0 0 0 0 0 0 0 0 0 0 0 0 0 0 0 0 0 0 0 0 0 0 0 0 0 0 0 0 0 0 0 0 0 0 0 0 0 0 0 0 0 0
0 0 0 0 0 0 0 0 0 0 0 0 0 0 0 0 0 0 0 0 0 0 0 0 0 0 0 0 0 0 0 0 0 0 0 0 0 0 0 0 0 0 0 0
0 0 0 0 0 0 0 0 0 0 0 0 0 0 0 0 0 0 0 0 0 0 0 0 0 0 0 0 0 0 0 0 0 0 0 0 0 0 0 0 0 0 0 0
0 0 0 0 0 0 0 0 0 0 0 0 0 -0 0 0 0 0 0 0 0 0 0 0 0 0 0 0 0 0 0 0 0 0 0 0 0 0 0 0 0 0 0 0
0 0 0 0 0 0 0 0 0 0 0 0 0 -0 0 0 0 0 0 0 0 0 0 0 0 0 0 0 0 0 0 0 0 0 0 0 0 0 0 0 0 0 0 0
0 0 0 0 0 0 0 0 0 0 0 0 0 0 0 0 0 0 0 0 0 0 0 0 0 0 0 0 0 0 0 0 0 0 0 0 0 0 0 0 0 0 0 0
0 0 0 0 0 0 0 0 0 0 0 0 0 0 0 0 0 0 0 0 0 0 0 0 0 0 0 0 0 0 0 0 0 0 0 0 0 0 0 0 0 0 0 0
0 0 0 0 0 0 0 0 0 0 0 0 0 0 0 0 0 0 0 0 0 0 0 0 0 0 0 0 0 0 0 0 0 0 0 0 0 0 0 0 0 0 0 0
0 0 0 0 0 0 0 0 0 0 0 0 0 0 0 0 0 0 0 0 0 0 0 0 0 0 0 0 0 0 0 0 0 0 0 0 0 0 0 0 0 0 0 0
0 0 0 0 0 0 0 0 0 0 0 0 0 0 0 0 0 0 0 0 0 0 0 0 0 0 0 0 0 0 0 0 0 0 0 0 0 0 0 0 0 0 0 0
0 0 0 0 0 0 0 0 0 0 0 0 0 0 0 0 0 0 0 0 0 0 0 0 0 0 0 0 0 0 0 0 0 0 0 0 0 0 0 0 0 0 0 0
0 0 0 0 0 0 0 0 0 0 0 0 0 0 0 0 0 0 0 0 0 0 0 0 0 0 0 0 0 0 0 0 0 0 0 0 0 0 0 0 0 0 0 0
0 0 0 0 0 0 0 0 0 0 0 0 0 0 0 0 0 0 0 0 0 0 0 0 0 0 0 0 0 0 0 0 0 0 0 0 0 0 0 0 0 0 0 0
0 0 0 0 0 0 0 0 0 0 0 0 0 0 0 0 0 0 0 0 0 0 0 0 0 0 0 0 0 0 0 0 0 0 0 0 0 0 0 0 0 0 0 0
0 0 0 0 0 0 0 0 0 0 0 0 0 0 0 0 0 0 0 0 0 0 0 0 0 0 0 0 0 0 0 0 0 0 0 0 0 0 0 0 0 0 0 0
0 0 0 0 0 0 0 0 0 0 0 0 0 0 0 0 0 0 0 0 0 0 0 0 0 0 0 0 0 0 0 0 0 0 0 0 0 0 0 0 0 0 0 0
Wind_Speed
6 3 3 5 6 7 7 5 4 4 5 8 11 11 11 11 11 12 13 13 13 12 11 11 10 10 10 9 9 8 7 6 6 4 4 3 2 1 1 0 1 2 3 3
4 2 0 3 4 4 4 4 3 2 4 6 8 7 9 11 12 12 12 12 11 11 10 10 10 9 9 9 9 9 8 8 7 6 6 5 4 3 2 1 0 1 2 3
2 2 4 2 1 2 2 3 3 4 5 8 8 8 10 11 11 11 11 11 10 10 9 9 9 9 9 8 8 9 9 9 8 8 7 6 5 4 3 2 1 0 1 1
1 3 2 4 3 1 2 1 2 3 5 7 8 7 5 8 11 11 11 10 10 9 8 8 8 8 7 8 9 9 9 9 8 8 8 7 6 6 4 3 2 1 1 1
3 2 1 4 5 3 3 1 1 4 5 7 8 5 3 10 12 11 10 9 8 8 7 7 8 8 7 8 8 9 9 9 8 8 8 7 7 7 6 5 4 3 3 2
4 4 2 4 6 2 4 3 3 2 4 7 8 2 6 12 12 11 10 8 8 7 6 6 7 7 7 8 9 9 8 8 8 8 8 8 8 7 6 5 4 3 4 4
5 4 1 6 6 5 5 3 3 1 3 5 6 7 9 11 10 10 9 8 8 7 6 6 6 6 7 8 8 8 7 8 8 8 8 8 7 6 6 5 5 5 5 4
4 4 1 10 8 6 1 4 1 1 2 4 6 7 8 9 10 10 10 9 8 7 6 5 5 6 6 6 6 5 6 6 7 8 7 6 7 6 6 6 5 5 5 5
4 2 5 7 5 2 2 2 1 1 2 4 6 7 8 9 9 9 10 9 8 8 7 5 4 5 6 5 4 4 4 5 6 6 6 7 7 7 6 6 5 5 5 5
6 6 6 7 6 5 4 2 1 2 3 4 5 7 8 8 9 9 9 9 8 8 7 6 5 5 4 4 3 3 4 4 5 5 6 6 5 6 6 6 6 5 5 5
7 4 5 9 10 8 6 4 3 2 2 3 5 6 7 8 8 9 9 8 8 8 8 7 6 5 3 2 3 2 3 3 4 4 5 5 5 6 6 7 7 6 5 4
4 5 6 6 11 10 8 6 4 2 2 2 4 5 7 7 8 8 9 8 9 9 9 8 7 5 3 1 2 3 2 3 3 3 3 3 3 4 5 5 8 9 9 7
1 5 4 4 8 10 8 6 4 3 2 3 4 4 6 7 7 8 8 9 10 10 9 8 7 5 3 1 1 2 2 2 2 2 3 3 3 3 3 4 5 9 11 11
4 6 6 6 8 9 7 6 4 2 2 2 3 4 5 6 7 8 9 9 9 9 8 7 6 5 4 2 1 1 1 2 1 2 2 2 3 3 3 4 4 5 8 10
9 8 5 7 8 9 7 6 5 4 2 2 2 4 5 6 7 8 8 9 8 8 7 7 6 5 4 2 1 0 0 1 1 2 2 2 3 3 3 4 4 4 5 6
11 8 7 9 10 10 9 7 6 4 3 2 3 4 5 6 7 7 7 8 8 8 7 7 6 6 5 2 1 1 1 2 1 1 2 2 2 3 3 3 4 4 5 5
14 13 12 11 11 10 9 7 5 4 4 3 3 5 5 6 6 7 8 8 8 7 6 6 6 6 4 2 2 1 2 4 3 2 2 2 2 3 3 3 4 4 5 6
13 13 12 12 11 10 9 8 6 5 4 3 4 5 5 6 7 7 8 8 8 6 5 6 7 7 3 1 1 1 2 2 2 2 2 2 2 3 3 3 4 4 4 5
12 11 11 10 9 9 8 8 7 6 4 4 5 5 5 6 6 7 8 8 8 7 7 8 8 6 2 0 1 2 2 3 3 3 3 3 3 3 3 3 3 3 4 4
11 11 10 10 9 9 8 7 6 6 5 5 5 5 5 5 6 7 8 7 5 6 8 9 8 5 2 1 2 3 3 3 3 3 3 3 3 3 3 3 3 3 3 3
12 12 11 11 10 9 8 8 7 6 6 5 6 6 6 6 6 6 7 6 6 7 9 8 5 3 2 1 4 3 3 4 4 3 4 4 3 3 3 3 3 3 3 3
11 11 12 11 11 10 9 8 7 7 6 6 6 6 6 6 6 6 6 5 6 7 8 6 4 4 5 5 4 4 4 4 4 4 4 4 4 4 4 4 4 3 3 3
9 11 12 12 12 11 10 9 8 7 7 7 6 6 6 5 5 5 6 5 6 9 8 6 7 8 8 5 4 5 5 5 5 4 4 4 4 4 4 4 4 4 4 4
7 9 10 11 11 10 10 10 9 7 7 7 6 6 6 5 5 4 4 5 6 9 7 6 8 8 8 5 4 5 5 5 5 5 4 4 4 4 4 4 4 4 4 5
5 7 9 10 10 9 10 9 9 8 8 6 7 7 6 5 5 5 6 7 7 8 7 6 6 7 6 4 4 5 5 5 5 5 5 5 5 5 5 5 4 4 4 5
3 4 5 8 8 7 7 7 7 7 7 7 6 6 5 5 5 5 5 6 8 7 6 5 5 4 4 3 4 5 5 5 6 6 6 5 6 6 5 5 6 5 5 5
3 3 4 5 6 7 7 7 8 8 7 7 7 6 5 5 5 5 6 5 5 5 5 5 5 4 4 4 4 5 5 5 5 6 6 6 5 5 5 6 5 5 4 5
Wind_Direction
102 102 49 35 28 32 43 35 28 5 360 356 347 346 352 4 11 19 25 26 26 26 26 28 28 23 20 22 22 24 31 30 28 25 19 14 15 8 349 185 209 191 192 191
152 166 316 32 27 31 40 28 26 27 45 357 336 348 4 12 13 17 20 21 22 25 26 26 26 23 24 26 26 31 36 32 25 27 31 21 15 24 33 26 296 225 214 198
155 169 240 229 36 9 34 26 350 4 3 340 344 355 1 4 6 10 11 13 17 20 23 25 26 23 26 28 31 35 38 35 29 32 32 24 21 33 34 35 35 315 239 231
233 217 249 86 116 264 293 291 315 322 330 331 327 321 346 12 3 1 1 1 6 9 16 17 23 26 29 35 35 37 35 33 29 27 29 28 29 27 23 24 27 13 16 343
252 259 212 168 192 214 257 252 248 313 332 337 324 268 84 24 4 355 351 349 350 351 359 11 18 15 20 35 40 38 33 29 27 27 28 28 29 23 19 26 29 24 30 19
240 260 256 127 134 154 242 226 146 300 334 345 333 318 31 360 350 349 348 346 342 341 355 11 12 7 17 31 35 34 29 28 27 27 29 27 24 19 18 23 28 33 39 24
240 255 235 128 142 179 230 77 108 308 340 346 354 350 336 335 344 347 346 346 343 342 353 -0 358 358 16 26 30 27 25 30 31 29 34 31 27 23 20 27 33 41 47 43
225 241 177 144 168 208 47 86 132 317 345 342 333 329 335 341 344 347 349 351 348 343 346 349 351 351 10 22 20 24 30 35 36 33 31 31 32 29 27 27 35 39 39 42
243 348 82 168 184 149 131 163 160 309 334 326 323 334 340 341 345 349 351 351 347 338 334 343 353 346 356 16 8 15 31 40 40 40 42 34 30 31 30 29 29 28 28 29
245 231 203 198 198 189 195 201 203 288 304 306 320 330 336 342 346 348 350 349 344 338 337 345 349 342 347 356 349 356 25 33 43 41 46 46 35 32 32 26 26 27 27 24
237 218 196 209 207 199 193 201 218 250 281 306 318 329 337 338 345 345 344 345 342 339 336 335 336 335 345 339 325 344 15 29 43 49 45 45 54 39 31 41 23 11 16 20
227 190 197 190 191 191 192 199 213 242 273 308 318 327 332 336 341 340 340 341 341 341 339 336 333 333 347 341 305 326 9 23 29 47 57 49 60 88 71 46 38 33 26 18
69 152 154 128 165 180 189 192 201 233 288 315 328 332 329 332 335 337 340 345 343 339 335 334 335 336 352 346 297 326 10 26 34 38 56 61 52 53 86 109 92 59 45 41
165 157 163 168 168 177 182 185 198 223 258 295 317 325 327 328 333 339 344 344 338 334 336 340 341 350 355 344 285 312 41 69 44 68 55 59 63 60 54 59 78 81 70 56
191 196 180 166 167 174 179 186 202 221 247 276 303 315 328 330 334 338 339 338 335 339 348 347 348 357 353 331 277 178 119 93 90 79 80 74 76 76 72 71 70 74 87 87
184 188 182 177 177 181 188 199 213 222 238 272 293 315 326 325 324 325 334 339 338 342 344 343 347 350 342 312 221 160 109 71 36 117 115 107 95 85 81 82 80 72 66 59
178 186 189 189 188 191 197 206 216 222 233 255 288 312 314 315 321 332 339 338 333 329 333 342 343 339 330 295 228 187 152 140 171 171 114 106 99 91 90 91 87 81 69 47
197 195 193 193 190 193 198 204 211 221 235 254 280 288 299 313 324 330 332 330 328 331 351 351 346 327 317 281 229 203 176 161 163 137 131 127 120 115 109 106 102 98 100 97
201 198 197 197 194 196 197 201 207 218 228 240 258 279 296 303 313 319 324 326 330 335 347 347 332 308 314 310 227 207 191 173 165 153 145 139 166 141 132 126 122 116 113 108
196 195 194 191 191 196 198 200 206 217 227 239 256 271 283 298 313 317 319 319 329 334 328 330 320 317 306 183 217 212 197 190 178 171 171 177 171 161 154 147 146 139 130 122
194 192 191 190 189 194 200 202 207 218 223 233 255 275 290 303 309 311 313 316 337 344 327 311 307 317 302 295 223 215 205 197 190 188 187 189 184 179 175 169 168 167 155 142
195 194 194 194 192 195 199 205 210 219 227 235 248 264 278 290 303 306 305 304 322 334 320 311 320 338 322 287 230 208 206 204 199 196 197 198 197 193 191 186 184 183 177 160
199 198 198 198 199 201 198 204 210 218 227 237 248 259 270 288 296 298 308 326 327 331 316 311 333 323 302 260 225 208 206 205 204 202 202 205 205 204 201 197 197 194 189 174
205 204 204 203 203 203 203 206 210 217 227 238 247 255 264 273 277 276 292 301 304 311 307 317 316 308 282 246 222 214 212 208 205 207 205 209 210 209 206 204 204 200 192 183
216 210 206 202 202 207 214 211 208 215 225 234 242 244 248 255 270 290 301 305 312 307 308 313 309 298 272 251 228 218 212 210 208 205 204 206 207 212 211 208 208 203 197 191
248 225 216 213 214 213 212 210 212 214 218 228 236 237 236 238 249 262 276 290 301 302 303 310 313 291 281 271 251 235 222 202 198 209 213 210 207 206 210 209 207 207 202 194
286 245 230 228 223 219 218 216 221 223 222 226 235 235 233 237 244 256 271 284 295 300 305 308 308 304 293 274 254 239 230 220 212 208 208 208 207 207 207 206 204 201 195 194